Wetterdaten Winter 2021/2022

Datum T max T min Regen
01.12.2021 10.1 °C 4.6 °C 2 mm
02.12.2021 6.9 °C 1.4 °C 4.4 mm
03.12.2021 3.5 °C -0.2 °C 0 mm
04.12.2021 8.9 °C 2.1 °C 10.2 mm
05.12.2021 6.6 °C 1.6 °C 1.4 mm
06.12.2021 3.8 °C 0.6 °C 1.8 mm
07.12.2021 6.2 °C 0.3 °C 1.2 mm
08.12.2021 4.6 °C 1.2 °C 6.2 mm
09.12.2021 4.3 °C 2.3 °C 1.6 mm
10.12.2021 4.7 °C -0.1 °C 0.4 mm
11.12.2021 4 °C 1.8 °C 1.6 mm
12.12.2021 6.6 °C 1.4 °C 0 mm
13.12.2021 7.8 °C 4.7 °C 0.4 mm
14.12.2021 6.5 °C 4.3 °C 0.2 mm
15.12.2021 6.3 °C 4.8 °C 0.2 mm
16.12.2021 6.6 °C 0.9 °C 0 mm
17.12.2021 7.5 °C 1.9 °C 0 mm
18.12.2021 3.6 °C 2.3 °C 0 mm
19.12.2021 2.8 °C 1.7 °C 0.2 mm
20.12.2021 5 °C -2.5 °C 0 mm
21.12.2021 1.6 °C -5.3 °C 0.2 mm
23.12.2021 7.1 °C -4.6 °C 0 mm
24.12.2021 8.8 °C 6.1 °C 3 mm
25.12.2021 8.8 °C 2.8 °C 8.2 mm
26.12.2021 6.3 °C 2.6 °C 2.6 mm
27.12.2021 9 °C 5.2 °C 7.6 mm
28.12.2021 11.3 °C 6.9 °C 4.8 mm
29.12.2021 13.4 °C 8 °C 5.2 mm
30.12.2021 15.8 °C 12.2 °C 1.4 mm
31.12.2021 13.2 °C 6.7 °C 0 mm
01.01.2022 13.2 °C 5 °C 0 mm
02.01.2022 14.8 °C 3.2 °C 0 mm
03.01.2022 12.9 °C 8.8 °C 1.6 mm
04.01.2022 12.2 °C 3.9 °C 17 mm
05.01.2022 5.3 °C 1.6 °C 2.6 mm
06.01.2022 5.6 °C -1.1 °C 0.2 mm
07.01.2022 2.9 °C -1.8 °C 0.2 mm
08.01.2022 4.2 °C 1.3 °C 1 mm
09.01.2022 5.3 °C 2 °C 4 mm
10.01.2022 4.4 °C -0.3 °C 0 mm
11.01.2022 4.7 °C 0.7 °C 0 mm
12.01.2022 1.2 °C -3.4 °C 0 mm
13.01.2022 3.7 °C -1.6 °C 0 mm
14.01.2022 5 °C -2.4 °C 0 mm
15.01.2022 0.8 °C -3.6 °C 0 mm
16.01.2022 2.6 °C -1.3 °C 0 mm
17.01.2022 4.7 °C 1.7 °C 0.4 mm
18.01.2022 6.3 °C 2.9 °C 0 mm
19.01.2022 6.3 °C -2.3 °C 0.2 mm
20.01.2022 4.7 °C 0.5 °C 1.4 mm
21.01.2022 2.8 °C -0.3 °C 0.2 mm
22.01.2022 4.1 °C 1.9 °C 0.2 mm
23.01.2022 5.8 °C 1.4 °C 0.2 mm
24.01.2022 6.2 °C -1.8 °C 0 mm
25.01.2022 1.9 °C -3.2 °C 0 mm
26.01.2022 0.1 °C -1.4 °C 0 mm
27.01.2022 3.7 °C -1.9 °C 1.2 mm
28.01.2022 5.8 °C 2.1 °C 0 mm
29.01.2022 7.9 °C 1.2 °C 0 mm
30.01.2022 7.9 °C 1.4 °C 0 mm
31.01.2022 5.7 °C 1.4 °C 4.2 mm
01.02.2022 6.8 °C 2.4 °C 1.2 mm
02.02.2022 9.2 °C 4.9 °C 2 mm
03.02.2022 10.2 °C 4.8 °C 3.2 mm
04.02.2022 7.6 °C 5.2 °C 1.6 mm
05.02.2022 8 °C 1.4 °C 0 mm
06.02.2022 7.9 °C 2.5 °C 18.6 mm
07.02.2022 5.3 °C 1.4 °C 5 mm
08.02.2022 10.1 °C 1.1 °C 0 mm
09.02.2022 13 °C 2.6 °C 0 mm
10.02.2022 10.2 °C -0.8 °C 0 mm
11.02.2022 6.6 °C -0.7 °C 1.6 mm
12.02.2022 7.2 °C -3.8 °C 0 mm
13.02.2022 12.9 °C -2.1 °C 0 mm
14.02.2022 12.8 °C 2.5 °C 0.2 mm
15.02.2022 9.1 °C 4.2 °C 0.2 mm
16.02.2022 12.2 °C 4.7 °C 2.2 mm
17.02.2022 13.3 °C 9 °C 1.4 mm
18.02.2022 16.8 °C 7.6 °C 0.2 mm
19.02.2022 9.5 °C 4.6 °C 0 mm
20.02.2022 9.8 °C 4.9 °C 0 mm
21.02.2022 10.4 °C 3.8 °C 1.6 mm
22.02.2022 9.4 °C 3.4 °C 1.4 mm
23.02.2022 12.6 °C 3.8 °C 1.6 mm
24.02.2022 14 °C 2.9 °C 0.6 mm
25.02.2022 7.9 °C 1.6 °C 0.2 mm
26.02.2022 7 °C 1.3 °C 0 mm
27.02.2022 8.7 °C -2.3 °C 0 mm
28.02.2022 10.1 °C -3.3 °C 0 mm
 Hinweis zur Datenqualität
∅ Temperatur

4.5 °C

Abweichung vom Mittel

+2.5 °C

Niederschlag

142.2 mm

Abweichung vom Mittel

115 %

16.8 °C

Lufttemperatur
18.02.2022

1043 hPa

Luftdruck
13.01.2022

40.3 km/h

Windböen
27.02.2022

142.2 mm

Niederschlag
 

-5.3 °C

Lufttemperatur
21.12.2021

-5 °C

Bodentemperatur 5cm
21.12.2021

994 hPa

Luftdruck
10.12.2021
 Hinweis zur Datenqualität